MOLNIYA 1-69

Last updated on Aug. 13, 2020, 5:30 a.m. UTC

1 17078U 86089A   20225.16673456  .00000734  00000-0  00000+0 0  9996
2 17078  64.1596 250.7593 6689477 265.4939  21.5305  2.00979898247306
UTC
Height (km)
Latitude
Longitude
Inclination
Orbital Period
UTC large
Height (km)
Speed (km/s)
/
Latitude / Longitude
Inclination (degrees)
Orbital Period (minutes)
Azimuth
Elevation
Range (km)
Doppler Factor
iOS Compass Heading
iOS Angle

Next 30 passes for location: Hong Kong

Rise time Rise Azimuth (degrees) Set time Set Azimuth (degrees) Duration Max altitude (degrees)

No matching passes for this satellites